DELTA 1 DEB, 10234

Orbit data source: Space-Track

DELTA 1 DEB, 10234 is space debris in LEO originally from a launch on Thu, 14 Jul 1977 UTC launched from the Air Force Eastern Test Range (AFETR). Debris objects in space refer to the collection of defunct objects orbiting the Earth. Examples of debris include non-operational satellites, rocket bodies, and fragments generated from explosions, collisions, or faulty payload assembly.

Loading next visibility...
Identifier
10234, 1977-065BM
Orbit
LEO
Country
Flag of USUS
Related business
Manufacturer
Unknown
Mission
Spacecraft
Bus & Motor
Unknown
Mass
Unknown
Launch date (UTC)
1977-07-14 (49 years ago)
Launch vehicle
Unknown
Launch site
Air Force Eastern Test Range (AFETR)
Object type
Payload
Rocket body
Debris
Shape & HBR
Unknown shape, 0.7 m
Radar Cross Section
Medium (>0.1 m² and <1 m²)

Expand to show TLE details & history
Last TLE update: 3 days ago

TLE from 3 days ago
0 DELTA 1 DEB
1 10234U 77065BM  26171.04774680  .00011780  00000-0  79693-3 0  9992
2 10234  28.9453 147.2344 0272455 298.8136  58.5356 14.79497314481374
Epoch: 2026-06-20T01:08Z
TLE epoch observation values (Epoch: 2026-06-20T01:08:45.323Z)
Latitude
-0.00003°
Longitude
-138.22247°
Altitude
533.463 km
Speed
7.65 km/s
True Right ascension
09h 48m 56s
True Declination
0° 00' 00"
Sunlit
Object was in daylight at epoch
Visualization orbit readout
Latitude
Unknown
Longitude
Unknown
Altitude
Unknown
Speed
Unknown
Apparent Right ascension
Unknown
Apparent Declination
Unknown
Sunlit
N/A
Visualization observer readout
Local Sidereal Time
04:00:28
Azimuth
Unknown
Elevation
Unknown
Doppler factor
Unknown
Orbital elements
Apogee altitude
826.074 km
Perigee altitude
443.921 km
Semi-major axis
7,013.135 km
Eccentricity
0.02725
Inclination
28.9453°
RAAN
147.2344°
Arg. of periapsis
298.8136°
True anomaly
61.24579°
Mean anomaly
58.5356°
Eccentric anomaly
59.88595°
Mean motion
3.69551 °/min
Orbital period
97.42 mins
BSTAR
0.00079693
Loading maneuver chart data...
Computing Atmospheric mass density...

Documentation

Showing up to 5 results
|